Regional Weather Roundup
Issued by NWS Upton, NY

Current Version | Previous Version | Text Only | Print | Product List | Glossary On
Versions: 1 2 3 4 5 6 7 8 9 10 11 12 13 14 15 16 17 18 19 20 21 22 23 24 25 26 27 28 29 30 31 32 33 34 35 36 37 38 39 40 41 42 43 44 45 46 47 48 49 50
000
ASUS41 KOKX 291205
RWROKX

REGIONAL WEATHER ROUNDUP
NATIONAL WEATHER SERVICE NEW YORK NY
700 AM EST THU JAN 29 2015

NOTE: "FAIR" INDICATES FEW OR NO CLOUDS BELOW 12,000 FEET WITH NO
SIGNIFICANT WEATHER AND/OR OBSTRUCTIONS TO VISIBILITY.

NYZ071-072-176-178-NJZ106-104-291300-
NEW YORK CITY METRO AREA


CITY           SKY/WX    TMP DP  RH WIND       PRES   REMARKS
CENTRAL PARK   CLEAR     20   3  48 NW3       30.33S
LAGUARDIA APRT PTCLDY    21   4  47 N7        30.32S WCI  12
KENNEDY INTL   PTCLDY    19   3  49 N6        30.33R WCI  11
NEWARK/LIBERTY PTCLDY    17   2  51 NW5       30.34R WCI  10
BRNX BOT. GARD   N/A    N/A N/A N/A N1        30.33F
TETERBORO      CLEAR     15   0  51 N3        30.33R
$$

NYZ177-179-078>081-291300-
LONG ISLAND NEW YORK

CITY           SKY/WX    TMP DP  RH WIND       PRES   REMARKS
FARMINGDALE    PTCLDY    15   3  59 CALM      30.31R
ISLIP          PTCLDY    14   5  67 N7        30.30R WCI   4
SHIRLEY        PTCLDY    13   3  64 N7        30.32R WCI   3
WESTHAMPTON    PTCLDY    -6 -12  75 N3        30.32R
MONTAUK POINT    N/A     24  10  55 N6        30.31R WCI  17
$$

NYZ052-065-067-291300-
HUDSON VALLEY

CITY           SKY/WX    TMP DP  RH WIND       PRES   REMARKS
WHITE PLAINS   PTCLDY    15  -4  42 N8        30.28R WCI   4
NEWBURGH       CLEAR      0  -4  85 W6        30.33R WCI -12
MONTGOMERY     PTCLDY    -4  -9  79 CALM      30.32R
POUGHKEEPSIE   PTCLDY    -4 -11  72 CALM      30.35R
ALBANY         MOCLDY     0  -6  76 N3        30.34R
$$

NJZ001-105-106-008-010-013-015-019>022-104-291300-
NEW JERSEY

CITY           SKY/WX    TMP DP  RH WIND       PRES   REMARKS
NEWARK/LIBERTY PTCLDY    17   2  51 NW5       30.34R WCI  10
TETERBORO      CLEAR     15   0  51 N3        30.33R
CALDWELL       PTCLDY    11   0  61 CALM      30.34R
MORRISTOWN     PTCLDY     3   0  85 CALM      30.33R
SOMERVILLE     PTCLDY     4  -1  80 NW3       30.33R
SUSSEX         CLEAR     -6 -10  83 CALM      30.32R
ANDOVER          N/A     -3  -8  79 CALM      30.32R
TRENTON        PTCLDY    11   2  67 NW6       30.33R WCI   1
MILLVILLE      PTCLDY    12   7  80 CALM      30.33R
ATLANTIC CITY  PTCLDY    14   4  64 NW7       30.33R WCI   4
WRIGHTSTOWN    PTCLDY    11   3  71 NW2       30.31R
TOMS RIVER     PTCLDY     0  -2  92 CALM      30.33R
BELMAR         PTCLDY    10  -4  52 NW7       30.31R WCI   0
$$

PAZ047>061-062-071-291300-
EASTERN PENNSYLVANIA

CITY           SKY/WX    TMP DP  RH WIND       PRES   REMARKS
PHILADELPHIA   PTCLDY    23   4  44 N3        30.35R
ALLENTOWN      PTCLDY     4  -2  76 CALM      30.32R
SCRANTON       PTCLDY     3  -3  76 SE3       30.28R
$$

CTZ002-004>006-009-010-012-RIZ004-006-007-MAZ004-011-015-291300-
SOUTHERN NEW ENGLAND
 IN CT

CITY           SKY/WX    TMP DP  RH WIND       PRES   REMARKS
BRADLEY INTL   PTCLDY     1  -7  68 CALM      30.32R
HARTFORD       PTCLDY     1  -3  83 SW6       30.34S WCI -10
DANBURY        PTCLDY    -2  -9  72 CALM      30.31R
WTRBRY/OXFORD  PTCLDY     7 -15  36 N7        30.26R WCI  -5
BRIDGEPORT     PTCLDY    13   3  64 CALM      30.32R
MERIDEN        PTCLDY    -1  -6  79 CALM      30.33S
NEW HAVEN      PTCLDY    13   0  56 N6        30.32R WCI   4
CHESTER        FAIR      14   0  52 NW7       30.29S WCI   4
GROTON         PTCLDY     8  -3  61 NE5       30.31R WCI   0
WILLIMANTIC    PTCLDY    -9 -15  75 NE3       30.31R

 IN RI

CITY           SKY/WX    TMP DP  RH WIND       PRES   REMARKS
PROVIDENCE     MOCLDY     5  -1  76 W3        30.30R
BLOCK ISLAND   PTCLDY    21   9  58 N6        30.27R WCI  14
WESTERLY       PTCLDY     1  -5  75 N6        30.31R WCI -10

 IN MA

CITY           SKY/WX    TMP DP  RH WIND       PRES   REMARKS
BOSTON         PTCLDY    14  -1  51 CALM      30.30R
WORCESTER      PTCLDY    19  -7  31 N5        30.23R WCI  12
WESTFIELD      PTCLDY    -3  -9  75 CALM      30.32R
PROVINCETOWN   CLEAR     28  18  64 N10G17    30.27R WCI  19
NANTUCKET      CLEAR     27  21  78 N10       30.26R WCI  17
$$

ANZ330-335-338-340-345-350-353-355-291300-
COASTAL MARINE OBSERVATIONS


STATION/POSITION TIME  SKY/WX   TEMP    WIND        PRES    VSBY  WAVE
                                AIR SEA DIR/SP/G                  HT/PER
                 (UTC)          (F)     (DEG/KT/KT) (MB)    (MI)  (FT/S)
NY HARB ENTRANCE 1200            26 39   30/ 10/ 14 1026.2          2/11
4S FIRE IS       NOT AVBL
20S FIRE ISLAND  1100               42              1026.3          3/11
23SW MTP         1200                                 N/A           3/10
HUDSON CANYON    NOT AVBL
EXECUTION ROCKS  1200            21 33  330/  8/ 10   N/A
WESTERN LI SOUND 1200            21     360/  6/  8   N/A           0
CENTRAL LI SOUND 1100            22 35   20/ 10/ 12   N/A           1/ 2
EASTERN LI SOUND NOT AVBL
ROBBINS REEF     1200            19     340/  7/ 11 1025.6
$$


>>>>>>>>>>>>>>>>>>>>>>>>>>>> KEY <<<<<<<<<<<<<<<<<<<<<<<<<<<
>                                                          <
>     SKY/WX - SKY CONDITION/PRESENT WEATHER               <
>     TMP    - TEMPERATURE IN FAHRENHEIT                   <
>     DP     - DEWPOINT IN FAHRENHEIT                      <
>     RH     - RELATIVE HUMIDITY IN PERCENT                <
>     WIND   - DIRECTION AND SPEED IN MPH                  <
>     PRES   - MEAN SEA LEVEL PRESSURE IN INCHES OF HG     <
>     WCI    - WIND CHILL INDEX                            <
>     VSB    - VISIBILITY IN MILES                         <
>     HX     - HEAT INDEX                                  <
>     TC     - TEMPERATURE IN CELSIUS                      <
>     VRB    - VARIABLE WIND DIRECTION                     <
>                                                          <
>>>>>>>>>>>>>>>>>>>>>>>>>>>> KEY <<<<<<<<<<<<<<<<<<<<<<<<<<<





USA.gov is the U.S. government's official web portal to all federal, state and local government web resources and services.